| time (UTC) | temp C | wind direction | speed KPH | gust KPH | rain 1hr cm | rain 24hr cm | rain mn cm | humidity % | barometer mb |
| 20260504204555 | 21 | 0 | 1.6 | 12.9 | 0.00 | 0.00 | 0.00 | 37 | 1004.9 |
| 20260504203103 | 21 | 0 | 0.0 | 8.0 | 0.00 | 0.00 | 0.00 | 38 | 1005.0 |
| 20260504201616 | 22 | 108 | 1.6 | 6.4 | 0.00 | 0.00 | 0.00 | 35 | 1004.9 |
| 20260504200053 | 22 | 251 | 1.6 | 9.7 | 0.00 | 0.00 | 0.00 | 32 | 1004.9 |
| 20260504194554 | 22 | 149 | 1.6 | 9.7 | 0.00 | 0.00 | 0.00 | 34 | 1005.0 |
| 20260504193052 | 22 | 85 | 1.6 | 11.3 | 0.00 | 0.00 | 0.00 | 35 | 1005.0 |
| 20260504191600 | 22 | 167 | 1.6 | 9.7 | 0.00 | 0.00 | 0.00 | 32 | 1005.0 |
| 20260504190113 | 22 | 0 | 0.0 | 6.4 | 0.00 | 0.00 | 0.00 | 38 | 1005.1 |
| 20260504184615 | 21 | 155 | 1.6 | 8.0 | 0.00 | 0.00 | 0.00 | 37 | 1005.2 |
| 20260504183053 | 22 | 0 | 1.6 | 9.7 | 0.00 | 0.00 | 0.00 | 34 | 1005.3 |
| 20260504181549 | 22 | 122 | 3.2 | 16.1 | 0.00 | 0.00 | 0.00 | 34 | 1005.5 |
| 20260504180054 | 22 | 333 | 3.2 | 9.7 | 0.00 | 0.00 | 0.00 | 33 | 1005.4 |
| 20260504174556 | 21 | 41 | 1.6 | 17.7 | 0.00 | 0.00 | 0.00 | 32 | 1005.3 |
| 20260504173057 | 22 | 259 | 1.6 | 12.9 | 0.00 | 0.00 | 0.00 | 36 | 1005.5 |
| 20260504171608 | 22 | 73 | 1.6 | 8.0 | 0.00 | 0.00 | 0.00 | 32 | 1005.5 |
| 20260504140107 | 15 | 159 | 3.2 | 6.4 | 0.00 | 0.00 | 0.00 | 44 | 1007.4 |
| 20260504120108 | 9 | 0 | 0.0 | 1.6 | 0.00 | 0.00 | 0.00 | 67 | 1008.4 |
| 20260504110106 | 5 | 0 | 0.0 | 0.0 | 0.00 | 0.00 | 0.00 | 86 | 1008.4 |
| 20260504081555 | 5 | 0 | 0.0 | 0.0 | 0.00 | 0.00 | 0.00 | 83 | 1008.6 |
| 20260504044554 | 3 | 0 | 0.0 | 0.0 | 0.00 | 0.00 | 0.00 | 83 | 1008.6 |
| 20260504043057 | 2 | 0 | 0.0 | 0.0 | 0.00 | 0.00 | 0.00 | 81 | 1008.6 |
| 20260504041553 | 2 | 0 | 0.0 | 0.0 | 0.00 | 0.00 | 0.00 | 82 | 1008.5 |
| 20260504040058 | 2 | 0 | 0.0 | 0.0 | 0.00 | 0.00 | 0.00 | 83 | 1008.4 |
| 20260504034553 | 2 | 0 | 0.0 | 0.0 | 0.00 | 0.00 | 0.00 | 84 | 1008.5 |
| 20260504033104 | 2 | 0 | 0.0 | 0.0 | 0.00 | 0.00 | 0.00 | 84 | 1008.4 |
| 20260504031601 | 2 | 0 | 0.0 | 0.0 | 0.00 | 0.00 | 0.00 | 84 | 1008.2 |
| 20260504030055 | 2 | 0 | 0.0 | 0.0 | 0.00 | 0.00 | 0.00 | 83 | 1008.2 |
| 20260504024558 | 2 | 0 | 0.0 | 0.0 | 0.00 | 0.00 | 0.00 | 83 | 1008.2 |
| 20260504023052 | 2 | 0 | 0.0 | 0.0 | 0.00 | 0.00 | 0.00 | 82 | 1008.3 |
| 20260504021555 | 2 | 0 | 0.0 | 0.0 | 0.00 | 0.00 | 0.00 | 81 | 1008.2 |
| 20260504020052 | 3 | 0 | 0.0 | 0.0 | 0.00 | 0.00 | 0.00 | 80 | 1008.1 |
| 20260504014552 | 3 | 0 | 0.0 | 0.0 | 0.00 | 0.00 | 0.00 | 79 | 1008.1 |
| 20260504013106 | 3 | 0 | 0.0 | 0.0 | 0.00 | 0.00 | 0.00 | 79 | 1008.0 |
| 20260504011553 | 3 | 0 | 0.0 | 0.0 | 0.00 | 0.00 | 0.00 | 78 | 1007.9 |
| 20260504010057 | 3 | 0 | 0.0 | 0.0 | 0.00 | 0.00 | 0.00 | 78 | 1007.7 |
| 20260504004603 | 4 | 0 | 0.0 | 0.0 | 0.00 | 0.03 | 0.00 | 75 | 1007.5 |
| 20260504003100 | 5 | 0 | 0.0 | 0.0 | 0.00 | 0.03 | 0.00 | 71 | 1007.4 |
| 20260504001557 | 5 | 0 | 0.0 | 0.0 | 0.00 | 0.03 | 0.00 | 68 | 1007.4 |
| 20260504000054 | 6 | 0 | 0.0 | 0.0 | 0.00 | 0.03 | 0.00 | 66 | 1007.1 |
| 20260503234549 | 6 | 0 | 0.0 | 0.0 | 0.00 | 0.05 | 0.00 | 63 | 1007.0 |
| 20260503233049 | 7 | 0 | 0.0 | 0.0 | 0.00 | 0.05 | 0.00 | 62 | 1006.8 |
| 20260503231555 | 8 | 0 | 0.0 | 0.0 | 0.00 | 0.05 | 0.00 | 59 | 1006.8 |
| 20260503230052 | 8 | 0 | 0.0 | 1.6 | 0.00 | 0.05 | 0.00 | 57 | 1006.5 |
| 20260503224551 | 9 | 0 | 0.0 | 1.6 | 0.00 | 0.23 | 0.00 | 52 | 1006.3 |
| 20260503223050 | 9 | 141 | 1.6 | 6.4 | 0.00 | 0.23 | 0.00 | 46 | 1006.1 |
| 20260503221552 | 9 | 123 | 1.6 | 6.4 | 0.00 | 0.23 | 0.00 | 47 | 1005.8 |
| 20260503220100 | 10 | 75 | 3.2 | 9.7 | 0.00 | 0.23 | 0.00 | 46 | 1005.7 |
| 20260503214547 | 10 | 215 | 1.6 | 11.3 | 0.00 | 0.30 | 0.00 | 44 | 1005.7 |
| 20260503213055 | 10 | 153 | 1.6 | 9.7 | 0.00 | 0.30 | 0.00 | 47 | 1005.6 |
| 20260503211603 | 10 | 72 | 1.6 | 9.7 | 0.00 | 0.30 | 0.00 | 47 | 1005.5 |
| 20260503210054 | 10 | 0 | 0.0 | 9.7 | 0.00 | 0.30 | 0.00 | 46 | 1005.3 |